Probability
8 9 11 12 11 13 14 11 7 4 2 2 1 1 0 0 0 0 0 0 0 0 0 0 0 0 0 0 0 0 0 0 0 0 0 0 0 0 0 0 0 0 0
9 9 9 9 10 10 10 7 5 3 1 1 1 1 0 0 0 0 0 0 0 0 0 0 0 0 0 0 0 0 0 0 0 0 0 0 0 0 0 0 0 0 0
8 8 7 6 8 7 5 2 2 2 1 0 1 1 0 0 0 0 0 0 0 0 0 0 0 0 0 0 0 0 0 0 0 0 0 0 0 0 0 0 0 0 0
8 8 6 4 4 4 2 0 1 1 0 0 0 0 0 0 0 0 0 0 0 0 0 0 0 0 0 0 0 0 0 0 0 0 0 0 0 0 0 0 0 0 0
6 7 5 2 1 1 0 0 0 0 0 0 0 0 0 0 0 0 0 0 0 0 0 0 0 0 0 0 0 0 0 0 0 0 0 0 0 0 0 0 0 0 0
4 5 4 2 0 0 0 0 0 0 0 0 0 0 0 0 0 0 0 0 0 0 0 0 0 0 0 0 0 0 0 0 0 0 0 0 0 0 0 0 0 0 0
3 5 5 3 1 1 1 1 1 0 0 0 0 0 0 0 0 0 0 0 0 0 0 0 0 0 0 0 0 0 0 0 0 0 0 0 0 0 0 0 0 0 0
2 4 5 3 2 4 4 2 1 0 0 0 1 1 0 0 0 0 0 0 0 0 0 0 0 0 0 0 0 0 0 0 0 0 0 0 0 0 0 0 0 0 0
1 2 3 3 3 5 5 3 1 1 1 1 1 1 1 1 1 0 0 0 0 0 0 0 0 0 0 0 0 0 0 0 0 0 0 0 0 0 0 0 0 0 0
0 0 1 1 2 4 6 5 4 3 2 2 2 2 2 2 2 1 1 1 0 0 0 0 0 0 0 0 0 0 0 0 0 0 0 0 0 0 0 0 0 0 0
0 0 0 0 2 4 6 6 5 4 4 4 5 5 5 5 5 5 4 3 1 0 0 0 0 0 0 0 0 0 0 0 0 0 0 0 0 0 0 0 0 0 0
0 0 0 1 2 3 5 6 6 6 6 7 10 11 11 11 10 11 10 7 3 1 0 0 0 0 0 0 0 0 0 1 1 1 1 1 1 1 1 0 0 0 0
1 1 1 2 2 3 3 5 6 6 8 10 14 19 21 20 18 17 17 13 8 3 0 0 0 0 0 0 2 2 2 3 3 3 3 3 2 2 2 1 1 0 0
3 5 6 6 7 5 4 4 6 8 11 14 20 26 28 27 25 24 23 20 12 5 1 0 0 1 1 2 4 5 5 6 6 6 5 4 4 4 3 3 2 1 1
5 8 11 13 14 12 8 7 10 14 18 21 24 27 29 29 29 28 27 24 17 9 4 2 3 4 3 3 4 6 8 10 12 12 11 9 6 4 3 3 2 2 2
6 9 13 18 20 19 15 14 16 21 27 28 26 26 27 28 28 27 25 25 24 20 16 12 10 8 5 2 2 3 7 14 21 25 24 17 9 5 3 2 1 1 2
13 14 16 20 22 21 20 20 22 25 29 31 30 28 26 27 26 22 23 28 34 36 33 28 22 17 11 4 1 1 4 14 27 36 39 31 18 9 5 4 3 3 2
20 20 18 17 18 19 20 21 21 21 22 25 27 25 21 20 20 18 20 26 34 40 40 36 32 28 20 8 1 0 2 10 22 35 44 47 35 17 8 8 11 11 10
17 16 13 12 13 14 15 16 16 14 14 16 18 16 13 14 15 15 15 20 25 29 30 29 31 32 24 9 1 0 1 6 16 29 39 43 35 17 6 10 18 21 21
9 9 8 9 10 11 13 13 13 12 11 12 12 10 9 11 13 13 12 14 16 16 17 19 22 24 19 9 1 0 0 4 13 27 32 26 17 8 3 9 17 21 21
6 5 6 6 7 8 10 11 11 10 9 8 7 7 6 7 8 10 10 11 11 11 10 11 12 12 10 5 1 0 0 3 10 20 25 18 6 1 1 5 9 11 11
2 2 2 2 3 4 5 5 5 4 3 2 2 2 2 2 3 4 5 5 5 6 6 6 5 4 4 2 1 0 0 1 4 8 13 12 4 0 0 1 2 2 2
0 0 0 0 0 1 1 1 1 0 0 0 0 0 0 0 1 1 1 1 1 2 2 2 1 1 1 1 0 0 0 0 0 1 3 3 1 0 0 0 0 0 0
0 0 0 0 0 0 0 0 0 0 0 0 0 0 0 0 0 0 0 0 0 0 0 0 0 0 0 0 0 0 0 0 0 0 0 0 0 0 0 0 1 2 2
0 0 0 0 0 0 0 0 0 0 0 0 0 0 0 0 0 0 0 0 0 0 0 0 0 0 0 0 0 0 0 0 0 0 0 0 0 0 0 1 3 5 6
0 0 0 0 0 0 0 0 0 0 0 0 0 0 0 0 0 0 0 0 0 0 0 0 0 0 0 0 0 0 0 0 0 0 0 0 0 0 1 2 4 6 8
Wind_Speed
9 9 9 8 9 8 8 10 10 10 8 6 7 6 6 4 4 3 4 3 3 3 2 2 2 1 2 2 1 1 1 1 2 3 3 3 2 0 0 1 2 1 2
10 10 10 10 10 10 10 11 11 10 9 7 5 4 4 4 4 3 4 3 3 2 2 3 1 2 2 2 1 2 3 1 1 4 3 4 5 3 1 1 1 1 1
12 12 12 11 11 11 11 10 11 11 10 9 6 6 5 4 5 5 5 4 4 3 3 2 2 1 1 3 1 1 2 1 0 2 4 4 1 4 4 2 2 1 1
12 13 13 13 13 12 12 11 11 11 10 10 8 9 6 5 5 4 5 5 5 4 3 2 2 1 1 2 0 3 1 3 1 1 1 3 5 4 2 4 3 2 1
12 13 13 13 12 13 12 12 12 11 10 10 9 8 7 4 4 5 5 6 6 5 5 4 2 2 1 2 2 2 2 1 2 1 1 1 2 4 5 2 2 2 1
12 12 12 12 12 13 13 12 12 12 11 11 10 10 8 6 5 6 6 7 6 6 7 6 4 4 2 2 1 1 1 2 2 2 1 2 2 2 3 4 4 3 2
12 12 13 13 13 14 14 14 14 13 13 12 11 11 9 8 8 7 7 6 5 6 7 6 6 4 3 3 3 3 1 2 1 2 2 2 2 3 3 5 4 4 3
13 13 14 14 14 15 15 15 15 14 13 13 11 10 10 8 7 8 6 7 5 5 6 7 7 6 6 5 4 4 4 3 3 3 3 3 3 3 4 4 5 5 5
13 14 14 15 15 15 16 15 15 14 13 13 12 11 11 10 7 7 8 6 6 5 7 7 8 7 7 6 6 5 4 4 5 5 5 6 3 4 4 4 5 6 7
14 14 14 15 15 15 15 15 14 14 13 13 12 10 11 11 9 9 9 7 7 6 7 8 8 8 8 8 8 7 6 6 6 5 5 5 6 4 5 5 5 6 7
14 14 14 15 15 15 15 14 14 14 13 13 12 11 11 11 11 10 10 9 8 8 9 9 9 9 9 9 9 9 7 8 8 7 8 8 8 6 6 6 6 6 7
12 13 14 15 15 15 15 15 14 14 14 13 12 12 11 11 11 11 11 10 10 10 10 10 10 10 10 10 10 11 10 10 10 9 9 9 8 9 8 7 8 7 7
12 12 13 14 14 14 14 14 14 14 14 13 12 12 12 12 12 11 11 11 10 10 10 11 11 11 11 11 11 11 11 11 11 11 11 10 10 10 9 9 9 8 8
10 11 12 12 12 12 12 12 13 12 12 12 12 12 12 11 11 11 11 11 11 11 11 11 12 12 12 12 12 12 12 12 12 12 12 12 12 12 11 10 11 10 10
9 10 10 9 9 10 10 10 10 10 10 10 11 10 10 9 10 10 10 10 11 11 11 11 12 12 12 12 13 13 13 13 13 13 13 14 13 13 11 10 10 10 10
6 7 7 7 7 7 7 7 7 7 8 8 9 8 8 8 9 9 9 9 10 10 11 12 12 13 12 11 13 13 13 13 13 14 14 14 15 15 16 15 14 13 13
5 5 5 4 4 4 4 4 3 3 4 4 4 4 5 6 6 7 8 8 9 10 11 12 12 14 14 12 14 16 14 14 14 14 14 13 13 15 15 18 21 20 20
8 8 7 8 7 6 6 6 6 5 4 3 2 1 1 2 2 4 5 6 6 7 9 10 11 12 13 11 13 13 15 16 16 16 16 16 15 15 15 15 16 17 18
10 10 11 11 10 10 9 10 9 8 7 7 5 4 3 1 1 1 2 3 5 6 7 8 9 11 11 8 10 11 12 13 17 17 17 17 17 16 15 16 17 17 15
11 12 12 13 12 11 10 11 11 10 9 8 7 6 5 4 4 3 3 3 4 5 6 7 7 9 10 6 6 9 10 13 14 14 15 17 18 17 15 17 17 18 17
12 13 13 13 12 11 11 12 12 11 9 8 8 7 6 5 5 4 4 4 4 4 5 6 7 7 8 7 6 7 8 11 12 12 12 12 14 18 17 17 17 18 16
12 12 12 12 10 10 10 11 11 9 8 7 8 7 6 6 5 5 4 4 5 5 5 5 6 6 5 5 4 5 9 11 12 12 12 11 9 9 13 15 16 17 14
10 10 11 10 9 9 9 10 8 7 6 6 6 6 6 5 6 5 5 4 4 5 6 6 7 7 6 5 5 6 9 11 10 11 13 14 14 13 12 17 18 16 13
9 8 8 8 8 7 7 7 6 5 5 5 4 4 4 4 5 5 5 6 6 7 7 8 8 8 8 8 8 9 9 9 11 11 11 13 17 16 16 14 13 14 14
7 7 6 7 7 6 5 5 5 4 4 3 4 4 4 5 5 5 5 5 6 5 7 9 9 10 10 10 12 11 12 13 13 14 13 13 13 13 12 12 13 12 13
6 5 5 5 5 4 4 3 3 3 4 4 5 5 5 5 6 6 6 3 6 5 9 10 9 9 9 11 13 15 15 16 15 12 13 14 14 14 14 13 13 12 12
Wind_Direction
170 167 170 166 161 162 163 158 154 150 156 158 163 163 160 158 151 136 121 117 90 81 20 49 81 351 52 16 353 307 198 270 311 258 218 186 191 123 206 304 300 234 240
172 170 172 169 169 171 171 163 160 162 172 166 167 165 153 169 155 144 138 143 127 116 104 48 81 69 87 76 24 332 310 22 320 293 257 205 172 177 88 98 74 3 255
177 175 174 171 171 173 171 170 167 171 178 168 169 157 158 178 171 173 170 167 160 140 85 93 56 65 336 82 31 341 313 319 108 333 309 292 238 153 144 100 85 63 8
177 175 175 176 177 176 171 171 172 177 177 177 183 182 189 189 178 185 167 172 184 181 164 145 109 48 56 93 163 61 337 304 277 141 336 343 354 304 173 172 146 109 46
177 176 178 179 179 175 173 174 176 180 180 188 189 198 206 196 178 185 169 194 187 198 194 186 174 181 165 80 45 70 348 329 329 324 251 218 228 270 289 234 187 189 161
175 176 178 176 179 178 178 178 179 185 186 192 197 209 210 205 196 200 188 202 193 198 196 199 201 209 193 168 182 176 161 15 5 322 308 283 281 277 279 274 253 252 214
175 175 177 177 179 181 182 183 184 189 191 196 202 207 210 207 208 212 203 215 206 198 189 201 203 210 202 205 207 218 252 213 238 272 287 302 302 308 295 289 286 281 255
177 179 180 180 182 183 185 187 189 192 194 199 204 208 209 215 214 212 221 208 221 210 181 196 204 210 209 212 209 231 216 221 241 256 283 277 264 277 278 287 296 281 263
179 181 182 184 185 187 188 190 191 195 198 202 204 208 210 220 222 204 214 216 210 203 190 200 206 210 212 219 217 236 231 226 239 235 219 248 256 252 266 271 277 289 292
181 182 183 186 186 189 190 193 195 199 202 204 207 208 209 211 213 215 215 216 207 206 200 204 209 212 212 214 223 231 221 232 238 252 266 261 263 255 256 260 261 265 278
183 182 183 184 187 189 190 194 198 202 205 209 210 215 211 209 208 212 212 210 211 203 207 210 212 216 217 215 219 237 231 231 238 238 237 239 258 263 259 249 253 255 259
186 185 184 186 189 192 194 196 201 205 209 209 210 212 213 211 211 211 211 208 208 209 209 212 215 220 221 219 221 229 232 232 236 238 239 242 239 238 254 259 255 255 259
192 189 189 191 195 198 200 201 204 209 209 207 209 211 212 211 213 215 209 207 207 212 214 214 218 223 225 224 226 230 234 235 236 237 237 238 240 241 243 245 252 252 247
194 195 193 196 201 203 206 210 212 212 212 210 211 213 215 214 213 213 210 208 210 213 217 219 223 226 228 229 229 229 232 235 237 238 239 238 236 237 239 241 244 250 256
189 195 196 195 200 204 209 213 217 214 213 213 214 216 217 216 216 214 213 212 213 217 219 223 226 229 231 231 229 230 232 233 236 236 236 237 236 238 237 243 240 238 243
168 177 183 186 190 197 204 208 213 212 208 216 220 217 215 212 214 216 216 217 220 224 225 227 230 232 235 226 220 231 242 239 239 240 239 238 230 229 227 239 248 252 249
107 119 129 134 140 148 158 161 170 180 185 198 212 212 218 217 219 222 223 224 226 228 230 233 235 239 241 230 216 218 239 247 246 244 243 243 239 225 229 225 227 237 242
84 83 87 89 89 96 105 106 108 110 112 110 105 110 233 238 236 237 241 244 244 243 242 243 243 246 247 230 221 218 234 248 250 247 244 244 248 239 233 235 230 230 229
81 78 76 78 76 78 84 90 87 83 81 75 66 55 46 32 342 303 292 279 270 263 260 257 256 256 260 243 226 222 247 247 250 251 248 246 246 241 226 236 243 242 241
82 83 81 79 75 73 78 83 81 76 68 65 62 58 52 49 39 22 351 325 294 281 278 276 274 273 275 269 235 224 256 260 260 255 252 246 244 245 220 231 240 244 244
87 86 83 78 74 73 74 74 70 65 59 57 57 51 45 47 44 31 14 346 320 311 301 298 291 285 282 280 252 229 261 275 275 271 266 261 236 230 225 227 240 245 251
92 88 83 79 74 72 74 73 66 63 61 59 56 48 35 24 32 24 10 353 333 311 300 300 297 292 290 286 287 250 249 270 282 280 278 281 290 251 236 232 241 246 250
97 91 90 86 79 72 72 74 69 60 58 57 52 43 36 27 16 1 356 342 338 325 326 322 317 315 318 304 255 252 257 256 266 277 280 285 287 278 257 239 235 236 239
106 104 101 96 89 81 75 73 66 57 49 41 32 22 11 3 11 341 343 342 340 338 334 326 320 317 311 311 330 328 311 288 274 280 287 274 260 253 257 257 236 233 237
114 110 106 102 97 87 76 66 56 38 26 16 357 344 346 357 330 329 330 323 331 344 317 320 319 317 315 338 346 322 311 311 312 312 294 282 274 264 255 249 244 238 234
118 114 106 96 88 81 75 58 33 11 347 340 340 334 333 339 324 322 316 262 260 242 237 249 272 299 305 314 309 302 292 285 284 286 279 278 276 272 267 262 255 246 239